sat.trackr.live / text

‹ back to catalog

STARLINK-5544

NORAD 55757 · 2023-028S

PAYLOAD ACTIVE UNKNOWN

§ Identity

Operator
Country
US
Launch date
2023-03-03
Launch site
AFWTR
Launch vehicle
Mass (kg)
RCS (m²)

Purposes: comms

External: N2YO · Heavens-Above · Gunter

§ Orbital elements

Epoch: 2026-05-25T03:26:04.784352Z

Period
96.11 min
Inclination
70.0003°
Eccentricity
0.0002647
Mean motion
14.98334258 rev/d
Perigee alt
570.2 km
Apogee alt
573.9 km
Semi-major
6,950.2 km
B*
-1.9971e-5
RAAN
51.6332°
Arg perigee
270.0762°
Mean anomaly
90.0094°
Rev number
17,749

§ Raw data

STARLINK-55441 55757U 23028S   26145.14311093 -.00000331  00000+0 -19971-4 0  99932 55757  70.0003  51.6332 0002647 270.0762  90.0094 14.98334258177491

JSON: /api/v1/satellites/55757 · /tle

For live sub-satellite position, see the globe view (requires WebGL).

§ Visibility from observer

Set your observer location to see the next 7 days of passes ≥ 10°. The values pass through the URL so the page stays shareable.

No JS? Fill the form by hand. The geolocation button needs JavaScript.